FW9594 Weather Reports


Display with metric or nautical units.
time (UTC)temp
F
wind
direction
speed
MPH
gust
MPH
rain 1hr
in
rain 24hr
in
rain mn
in
humidity
%
barometer
mb
20240225214826 86 51 3.0 10.0 0.00 0.00 0.00 29 1009.2
20240225213825 86 65 2.0 10.0 0.00 0.00 0.00 29 1009.2
20240225212825 86 32 3.0 7.0 0.00 0.00 0.00 30 1009.3
20240225212309 85 34 3.0 12.0 0.00 0.00 0.00 31 1009.3
20240225211311 85 32 2.0 9.0 0.00 0.00 0.00 32 1009.3
20240225210259 85 32 2.0 13.0 0.00 0.00 0.00 32 1009.4
20240225205306 84 28 3.0 16.0 0.00 0.00 0.00 33 1009.4
20240225204308 84 34 3.0 10.0 0.00 0.00 0.00 33 1009.6
20240225202824 84 45 2.0 9.0 0.00 0.00 0.00 33 1009.6
20240225201823 83 56 4.0 10.0 0.00 0.00 0.00 33 1009.8
20240225200823 83 0 4.0 11.0 0.00 0.00 0.00 32 1009.9
20240225200310 83 24 4.0 11.0 0.00 0.00 0.00 33 1010.0
20240225194825 83 28 4.0 9.0 0.00 0.00 0.00 37 1010.1
20240225193825 82 52 1.0 7.0 0.00 0.00 0.00 38 1010.3
20240225192822 82 58 4.0 12.0 0.00 0.00 0.00 37 1010.5
20240225191822 81 357 3.0 7.0 0.00 0.00 0.00 39 1010.6
20240225190822 80 41 5.0 10.0 0.00 0.00 0.00 39 1010.8
20240225185822 80 27 4.0 11.0 0.00 0.00 0.00 40 1010.9
20240225184822 79 27 3.0 10.0 0.00 0.00 0.00 41 1011.1
20240225184258 78 37 4.0 7.0 0.00 0.00 0.00 41 1011.3
20240225182821 78 44 3.0 10.0 0.00 0.00 0.00 42 1011.6
20240225181821 77 48 3.0 7.0 0.00 0.00 0.00 42 1011.7
20240225180820 76 24 3.0 9.0 0.00 0.00 0.00 42 1011.8
20240225180302 75 24 1.0 13.0 0.00 0.00 0.00 44 1012.1
20240225174820 74 30 3.0 13.0 0.00 0.00 0.00 44 1012.2
20240225173820 73 16 4.0 9.0 0.00 0.00 0.00 45 1012.3
20240225172819 73 86 3.0 9.0 0.00 0.00 0.00 45 1012.6
20240225171819 72 85 3.0 9.0 0.00 0.00 0.00 46 1012.7
20240225170819 71 42 2.0 11.0 0.00 0.00 0.00 47 1012.8
20240225165819 71 25 3.0 13.0 0.00 0.00 0.00 47 1013.0
20240225165213 69 321 4.0 10.0 0.00 0.00 0.00 48 1013.2
20240225164940 70 34 4.0 9.0 0.00 0.00 0.00 47 1013.1
20240225162818 69 75 2.0 11.0 0.00 0.00 0.00 49 1013.1
20240225161818 68 10 3.0 11.0 0.00 0.00 0.00 49 1013.0
20240225160818 67 73 2.0 11.0 0.00 0.00 0.00 50 1013.1
20240225155820 66 61 3.0 10.0 0.00 0.00 0.00 50 1013.2
20240225155306 65 55 4.0 12.0 0.00 0.00 0.00 51 1013.3
20240225153817 64 47 3.0 11.0 0.00 0.00 0.00 51 1013.4
20240225152819 63 20 2.0 9.0 0.00 0.00 0.00 51 1013.6
20240225151818 62 76 3.0 11.0 0.00 0.00 0.00 52 1013.6
20240225151254 61 351 3.0 12.0 0.00 0.00 0.00 52 1013.6
20240225145819 60 92 2.0 14.0 0.00 0.00 0.00 52 1013.6
20240225144820 59 39 2.0 10.0 0.00 0.00 0.00 52 1013.7
20240225143818 59 93 2.0 10.0 0.00 0.00 0.00 53 1013.8
20240225143300 58 27 1.0 6.0 0.00 0.00 0.00 53 1013.5
20240225142249 57 30 2.0 10.0 0.00 0.00 0.00 54 1013.6
20240225140806 57 55 1.0 5.0 0.00 0.00 0.00 54 1013.4
20240225140728 56 18 2.0 5.0 0.00 0.00 0.00 54 1013.5
20240225134805 56 39 0.0 1.0 0.00 0.00 0.00 54 1013.6
20240225134242 56 47 0.0 4.0 0.00 0.00 0.00 54 1013.7
20240225132804 56 27 0.0 3.0 0.00 0.00 0.00 54 1013.5
20240225131803 56 41 1.0 4.0 0.00 0.00 0.00 53 1013.6
20240225130802 56 35 0.0 4.0 0.00 0.00 0.00 53 1013.6
20240225125802 56 24 0.0 2.0 0.00 0.00 0.00 53 1013.6
20240225124802 57 20 0.0 3.0 0.00 0.00 0.00 52 1013.6
20240225123802 57 25 0.0 4.0 0.00 0.00 0.00 52 1013.6
20240225122802 57 28 0.0 4.0 0.00 0.00 0.00 51 1013.6
20240225121802 57 344 1.0 4.0 0.00 0.00 0.00 51 1013.6
20240225120759 58 45 2.0 6.0 0.00 0.00 0.00 51 1013.6
20240225120232 58 51 0.0 4.0 0.00 0.00 0.00 51 1013.6
20240225114757 58 31 1.0 4.0 0.00 0.00 0.00 51 1013.4
20240225113748 59 37 0.0 3.0 0.00 0.00 0.00 50 1013.4
20240225113222 59 41 1.0 6.0 0.00 0.00 0.00 49 1013.5
20240225111745 60 32 2.0 6.0 0.00 0.00 0.00 48 1013.5
20240225110743 60 41 2.0 5.0 0.00 0.00 0.00 47 1013.4
20240225105743 60 38 4.0 9.0 0.00 0.00 0.00 48 1013.5
20240225105215 60 323 0.0 6.0 0.00 0.00 0.00 49 1013.5
20240225104216 60 37 2.0 7.0 0.00 0.00 0.00 48 1013.7
20240225102737 60 37 2.0 9.0 0.00 0.00 0.00 48 1013.9
20240225102209 61 17 2.0 7.0 0.00 0.00 0.00 49 1014.0
20240225100732 61 25 4.0 7.0 0.00 0.00 0.00 48 1014.1
20240225095731 61 51 4.0 11.0 0.00 0.00 0.00 48 1014.1
20240225094731 61 63 2.0 11.0 0.00 0.00 0.00 49 1014.1
20240225093730 62 16 3.0 10.0 0.00 0.00 0.00 49 1014.0
20240225092731 62 42 3.0 10.0 0.00 0.00 0.00 50 1014.2
20240225091731 62 39 3.0 9.0 0.00 0.00 0.00 49 1014.2
20240225091214 62 24 2.0 7.0 0.00 0.00 0.00 49 1014.4
20240225085731 62 41 3.0 10.0 0.00 0.00 0.00 48 1014.5
20240225084731 62 30 3.0 7.0 0.00 0.00 0.00 47 1014.6
20240225083731 62 62 2.0 9.0 0.00 0.00 0.00 47 1014.7
20240225083213 62 32 2.0 10.0 0.00 0.00 0.00 46 1014.7
20240225081734 62 39 2.0 10.0 0.00 0.00 0.00 46 1014.8
20240225080732 63 23 3.0 7.0 0.00 0.00 0.00 46 1014.8
20240225080223 62 37 4.0 9.0 0.00 0.00 0.00 47 1014.8
20240225074731 62 48 3.0 7.0 0.00 0.00 0.00 47 1014.7
20240225073732 62 42 3.0 6.0 0.00 0.00 0.00 47 1015.2
20240225072730 62 28 2.0 5.0 0.00 0.00 0.00 47 1015.2
20240225072219 62 39 1.0 2.0 0.00 0.00 0.00 48 1015.3
20240225070729 62 54 1.0 4.0 0.00 0.00 0.00 48 1015.4
20240225065728 62 45 0.0 3.0 0.00 0.00 0.00 47 1015.2
20240225064728 62 324 1.0 5.0 0.00 0.00 0.00 47 1015.2
20240225063726 62 37 0.0 3.0 0.00 0.00 0.00 46 1015.3
20240225062725 63 27 0.0 5.0 0.00 0.00 0.00 46 1015.4
20240225061721 63 18 0.0 5.0 0.00 0.00 0.00 45 1015.4
20240225060719 63 38 1.0 3.0 0.00 0.00 0.00 44 1015.6
20240225055717 64 41 1.0 4.0 0.00 0.00 0.00 44 1015.6
20240225055154 64 49 2.0 5.0 0.00 0.00 0.00 43 1015.7
20240225054156 64 42 2.0 4.0 0.00 0.00 0.00 44 1015.8
20240225052710 64 27 0.0 4.0 0.00 0.00 0.00 44 1015.9
20240225051708 64 34 1.0 3.0 0.00 0.00 0.00 43 1016.0
20240225050706 64 25 0.0 6.0 0.00 0.00 0.00 43 1016.0
20240225045706 64 32 1.0 5.0 0.00 0.00 0.00 43 1016.1
20240225044703 64 94 1.0 3.0 0.00 0.00 0.00 43 1016.2
20240225043702 64 41 2.0 4.0 0.00 0.00 0.00 43 1016.2
20240225042702 64 35 0.0 3.0 0.00 0.00 0.00 44 1016.3
20240225041701 64 44 1.0 3.0 0.00 0.00 0.00 44 1016.4
20240225040701 63 11 0.0 1.0 0.00 0.00 0.00 45 1016.4
20240225040148 63 27 0.0 0.0 0.00 0.00 0.00 45 1016.4
20240225035149 64 27 0.0 2.0 0.00 0.00 0.00 44 1016.5
20240225033701 64 27 0.0 2.0 0.00 0.00 0.00 43 1016.6
20240225032700 64 23 0.0 2.0 0.00 0.00 0.00 42 1016.5
20240225031700 65 47 0.0 3.0 0.00 0.00 0.00 42 1016.5
20240225030700 65 21 0.0 0.0 0.00 0.00 0.00 41 1016.4
20240225025659 65 20 0.0 3.0 0.00 0.00 0.00 40 1016.3
20240225024700 65 24 1.0 2.0 0.00 0.00 0.00 39 1016.3
20240225023659 65 32 0.0 3.0 0.00 0.00 0.00 40 1016.3
20240225022659 64 44 0.0 0.0 0.00 0.00 0.00 40 1016.3
20240225021658 64 42 0.0 0.0 0.00 0.00 0.00 42 1016.4
20240225020702 64 42 0.0 0.0 0.00 0.00 0.00 40 1016.2
20240225015701 65 42 0.0 0.0 0.00 0.00 0.00 38 1016.1
20240225014700 64 42 0.0 0.0 0.00 0.00 0.00 38 1016.1
20240225013657 64 42 0.0 0.0 0.00 0.00 0.00 37 1016.1
20240225012700 65 42 0.0 0.0 0.00 0.00 0.00 36 1016.1
20240225011700 65 42 0.0 0.0 0.00 0.00 0.00 35 1016.0
20240225011142 66 42 0.0 0.0 0.00 0.00 0.00 34 1015.8
20240225010147 68 42 0.0 0.0 0.00 0.00 0.00 32 1015.8
20240225004700 69 42 0.0 0.0 0.00 0.00 0.00 31 1015.8
20240225003659 70 42 0.0 0.0 0.00 0.00 0.00 29 1015.8
20240225002658 72 42 0.0 0.0 0.00 0.00 0.00 27 1015.8
20240225002615 74 44 0.0 0.0 0.00 0.00 0.00 25 1015.9
20240225000659 76 44 1.0 5.0 0.00 0.00 0.00 23 1015.8
20240224235655 77 42 0.0 2.0 0.00 0.00 0.00 22 1016.0
20240224234655 77 47 1.0 6.0 0.00 0.00 0.00 22 1016.0
20240224233655 78 0 1.0 4.0 0.00 0.00 0.00 23 1016.1
20240224233135 78 35 2.0 6.0 0.00 0.00 0.00 22 1016.2
20240224232135 78 87 2.0 7.0 0.00 0.00 0.00 23 1016.3
20240224230654 78 54 1.0 4.0 0.00 0.00 0.00 22 1016.4
20240224225655 79 32 1.0 4.0 0.00 0.00 0.00 23 1016.4
20240224224654 79 63 1.0 5.0 0.00 0.00 0.00 24 1016.6
20240224223653 79 71 1.0 5.0 0.00 0.00 0.00 23 1016.6
20240224222653 78 37 2.0 6.0 0.00 0.00 0.00 23 1016.8
20240224221654 78 34 0.0 6.0 0.00 0.00 0.00 24 1016.8
20240224220653 78 27 4.0 10.0 0.00 0.00 0.00 23 1017.0
20240224215653 79 39 1.0 4.0 0.00 0.00 0.00 25 1017.0